Time,TemperatureF,DewpointF,PressureIn,WindDirection,WindDirectionDegrees,WindSpeedMPH,WindSpeedGustMPH,Humidity,HourlyPrecipIn,Conditions,Clouds,dailyrainin,SoftwareType,DateUTC
2013-02-11 00:01:00,40.0,40.0,29.55,SSW,198,12.0,0.0,100,0.03,,,-99.99,,2013-02-11 05:01:00,
2013-02-11 01:22:00,42.0,42.0,29.51,SSW,204,14.0,0.0,100,0.03,,,-99.99,,2013-02-11 06:22:00,
2013-02-11 01:32:00,43.0,43.0,29.50,South,173,15.0,0.0,100,0.03,,,-99.99,,2013-02-11 06:32:00,
2013-02-11 01:42:00,43.0,43.0,29.50,South,173,15.0,0.0,100,0.03,,,-99.99,,2013-02-11 06:42:00,
2013-02-11 01:52:00,42.0,42.0,29.50,SSW,193,13.0,0.0,100,0.03,,,-99.99,,2013-02-11 06:52:00,
2013-02-11 02:02:00,43.0,43.0,29.49,South,184,12.0,0.0,100,0.03,,,-99.99,,2013-02-11 07:02:00,
2013-02-11 02:12:00,43.0,43.0,29.49,South,184,12.0,0.0,100,0.03,,,-99.99,,2013-02-11 07:12:00,
2013-02-11 02:22:00,43.0,43.0,29.49,South,190,12.0,0.0,100,0.03,,,-99.99,,2013-02-11 07:22:00,
2013-02-11 02:32:00,43.0,43.0,29.49,North,10,10.0,0.0,100,0.03,,,-99.99,,2013-02-11 07:32:00,
2013-02-11 02:42:00,43.0,43.0,29.49,North,10,10.0,0.0,100,0.03,,,-99.99,,2013-02-11 07:42:00,
2013-02-11 02:52:00,43.0,43.0,29.49,North,10,10.0,0.0,100,0.03,,,-99.99,,2013-02-11 07:52:00,
2013-02-11 03:01:00,43.0,43.0,29.48,North,11,0.0,0.0,100,0.03,,,-99.99,,2013-02-11 08:01:00,
2013-02-11 03:11:00,43.0,43.0,29.48,North,11,0.0,0.0,100,0.03,,,-99.99,,2013-02-11 08:11:00,
2013-02-11 03:22:00,43.0,43.0,29.49,North,11,0.0,0.0,100,0.03,,,-99.99,,2013-02-11 08:22:00,
2013-02-11 03:32:00,42.0,42.0,29.48,North,359,0.0,0.0,100,0.03,,,-99.99,,2013-02-11 08:32:00,
2013-02-11 03:42:00,42.0,42.0,29.49,North,359,0.0,0.0,100,0.03,,,-99.99,,2013-02-11 08:42:00,
2013-02-11 03:52:00,42.0,42.0,29.49,North,359,0.0,0.0,100,0.03,,,-99.99,,2013-02-11 08:52:00,
2013-02-11 04:02:00,42.0,42.0,29.49,North,359,0.0,0.0,100,0.03,,,-99.99,,2013-02-11 09:02:00,
2013-02-11 04:12:00,42.0,42.0,29.49,North,359,0.0,0.0,100,0.03,,,-99.99,,2013-02-11 09:12:00,
2013-02-11 04:22:00,42.0,40.0,29.47,North,359,0.0,0.0,93,0.03,,,-99.99,,2013-02-11 09:22:00,
2013-02-11 04:32:00,42.0,39.0,29.47,North,359,0.0,0.0,90,0.03,,,-99.99,,2013-02-11 09:32:00,
2013-02-11 04:42:00,42.0,39.0,29.47,North,359,0.0,0.0,90,0.03,,,-99.99,,2013-02-11 09:42:00,
2013-02-11 04:52:00,41.0,38.0,29.47,North,359,0.0,0.0,89,0.03,,,-99.99,,2013-02-11 09:52:00,
2013-02-11 05:02:00,41.0,38.0,29.47,North,359,0.0,0.0,89,0.03,,,-99.99,,2013-02-11 10:02:00,
2013-02-11 05:11:00,41.0,38.0,29.47,North,359,0.0,0.0,89,0.03,,,-99.99,,2013-02-11 10:11:00,
2013-02-11 05:21:00,41.0,38.0,29.47,North,359,0.0,0.0,90,0.03,,,-99.99,,2013-02-11 10:21:00,
2013-02-11 05:32:00,41.0,38.0,29.47,North,359,0.0,0.0,90,0.03,,,-99.99,,2013-02-11 10:32:00,
2013-02-11 05:42:00,41.0,38.0,29.47,North,359,0.0,0.0,90,0.03,,,-99.99,,2013-02-11 10:42:00,
2013-02-11 05:52:00,40.0,37.0,29.47,North,359,0.0,0.0,90,0.03,,,-99.99,,2013-02-11 10:52:00,
2013-02-11 06:02:00,39.0,37.0,29.47,North,359,0.0,0.0,91,0.03,,,-99.99,,2013-02-11 11:02:00,
2013-02-11 06:11:00,39.0,37.0,29.47,North,359,0.0,0.0,91,0.03,,,-99.99,,2013-02-11 11:11:00,
2013-02-11 06:22:00,39.0,37.0,29.47,North,359,0.0,0.0,92,0.03,,,-99.99,,2013-02-11 11:22:00,
2013-02-11 06:32:00,38.0,36.0,29.48,North,359,0.0,0.0,94,0.03,,,-99.99,,2013-02-11 11:32:00,
2013-02-11 06:42:00,38.0,36.0,29.48,North,359,0.0,0.0,94,0.03,,,-99.99,,2013-02-11 11:42:00,
2013-02-11 06:52:00,38.0,36.0,29.48,North,359,0.0,0.0,94,0.03,,,-99.99,,2013-02-11 11:52:00,
2013-02-11 07:03:00,37.0,35.0,29.48,North,359,0.0,0.0,94,0.03,,,-99.99,,2013-02-11 12:03:00,
2013-02-11 07:12:00,37.0,35.0,29.48,North,359,0.0,0.0,94,0.03,,,-99.99,,2013-02-11 12:12:00,
2013-02-11 07:22:00,37.0,35.0,29.49,North,359,0.0,0.0,91,0.03,,,-99.99,,2013-02-11 12:22:00,
2013-02-11 07:32:00,37.0,35.0,29.49,West,278,1.0,0.0,92,0.03,,,-99.99,,2013-02-11 12:32:00,
2013-02-11 07:42:00,37.0,35.0,29.49,West,278,0.0,0.0,93,0.03,,,-99.99,,2013-02-11 12:42:00,
2013-02-11 07:52:00,37.0,35.0,29.49,West,278,0.0,0.0,93,0.03,,,-99.99,,2013-02-11 12:52:00,
2013-02-11 08:02:00,37.0,35.0,29.49,West,278,0.0,0.0,93,0.03,,,-99.99,,2013-02-11 13:02:00,
2013-02-11 08:12:00,37.0,35.0,29.49,West,278,0.0,0.0,93,0.03,,,-99.99,,2013-02-11 13:12:00,
2013-02-11 08:22:00,37.0,35.0,29.49,West,278,0.0,0.0,93,0.03,,,-99.99,,2013-02-11 13:22:00,
2013-02-11 08:52:00,35.0,34.0,29.51,SW,222,12.0,0.0,96,0.03,,,-99.99,,2013-02-11 13:52:00,
2013-02-11 09:02:00,35.0,34.0,29.51,SW,222,12.0,0.0,96,0.03,,,-99.99,,2013-02-11 14:02:00,
2013-02-11 09:12:00,35.0,34.0,29.51,SW,222,12.0,0.0,96,0.03,,,-99.99,,2013-02-11 14:12:00,
2013-02-11 09:22:00,35.0,34.0,29.51,SW,222,12.0,0.0,96,0.03,,,-99.99,,2013-02-11 14:22:00,
2013-02-11 10:02:00,33.0,33.0,29.52,North,1,2.0,0.0,100,0.03,,,-99.99,,2013-02-11 15:02:00,
2013-02-11 10:11:00,33.0,33.0,29.52,North,1,2.0,0.0,100,0.03,,,-99.99,,2013-02-11 15:11:00,
2013-02-11 10:22:00,32.0,32.0,29.52,North,1,0.0,0.0,100,0.03,,,-99.99,,2013-02-11 15:22:00,
2013-02-11 10:32:00,32.0,32.0,29.52,SW,218,12.0,0.0,100,0.03,,,-99.99,,2013-02-11 15:32:00,
2013-02-11 10:42:00,32.0,32.0,29.52,SW,218,12.0,0.0,100,0.03,,,-99.99,,2013-02-11 15:42:00,
2013-02-11 10:52:00,32.0,32.0,29.52,North,1,0.0,0.0,100,0.03,,,-99.99,,2013-02-11 15:52:00,
2013-02-11 11:02:00,32.0,32.0,29.53,North,1,0.0,0.0,100,0.03,,,-99.99,,2013-02-11 16:02:00,
2013-02-11 11:12:00,32.0,32.0,29.53,North,1,0.0,0.0,100,0.03,,,-99.99,,2013-02-11 16:12:00,
2013-02-11 11:22:00,32.0,32.0,29.53,North,1,0.0,0.0,100,0.03,,,-99.99,,2013-02-11 16:22:00,
2013-02-11 11:32:00,33.0,33.0,29.54,North,1,0.0,0.0,100,0.03,,,-99.99,,2013-02-11 16:32:00,
2013-02-11 11:42:00,33.0,33.0,29.54,North,359,0.0,0.0,100,0.03,,,-99.99,,2013-02-11 16:42:00,
2013-02-11 11:52:00,33.0,33.0,29.54,North,359,0.0,0.0,100,0.03,,,-99.99,,2013-02-11 16:52:00,
2013-02-11 12:02:00,34.0,34.0,29.54,North,359,0.0,0.0,100,0.03,,,-99.99,,2013-02-11 17:02:00,
2013-02-11 12:12:00,34.0,34.0,29.54,North,359,0.0,0.0,100,0.03,,,-99.99,,2013-02-11 17:12:00,
2013-02-11 12:22:00,34.0,34.0,29.55,North,359,3.0,0.0,100,0.03,,,-99.99,,2013-02-11 17:22:00,
2013-02-11 12:32:00,34.0,34.0,29.55,North,359,0.0,0.0,100,0.03,,,-99.99,,2013-02-11 17:32:00,
2013-02-11 12:42:00,34.0,34.0,29.55,North,359,0.0,0.0,100,0.03,,,-99.99,,2013-02-11 17:42:00,
2013-02-11 12:53:00,34.0,34.0,29.55,North,359,0.0,0.0,100,0.03,,,-99.99,,2013-02-11 17:53:00,
2013-02-11 13:02:00,34.0,34.0,29.55,WSW,252,12.0,0.0,100,0.03,,,-99.99,,2013-02-11 18:02:00,
2013-02-11 13:11:00,34.0,34.0,29.55,WSW,252,12.0,0.0,100,0.03,,,-99.99,,2013-02-11 18:11:00,
2013-02-11 13:22:00,33.0,33.0,29.56,West,271,15.0,0.0,100,0.03,,,-99.99,,2013-02-11 18:22:00,
2013-02-11 13:32:00,33.0,33.0,29.57,WSW,250,14.0,0.0,100,0.03,,,-99.99,,2013-02-11 18:32:00,
2013-02-11 13:42:00,33.0,33.0,29.57,WSW,250,14.0,0.0,100,0.03,,,-99.99,,2013-02-11 18:42:00,
2013-02-11 13:54:00,33.0,33.0,29.57,SW,222,11.0,0.0,100,0.03,,,-99.99,,2013-02-11 18:54:00,
2013-02-11 14:02:00,33.0,33.0,29.57,WSW,256,8.0,0.0,100,0.03,,,-99.99,,2013-02-11 19:02:00,
2013-02-11 14:12:00,33.0,33.0,29.57,WSW,256,8.0,0.0,100,0.03,,,-99.99,,2013-02-11 19:12:00,
2013-02-11 14:22:00,33.0,33.0,29.58,WSW,253,15.0,0.0,100,0.03,,,-99.99,,2013-02-11 19:22:00,
2013-02-11 14:32:00,33.0,33.0,29.59,WSW,246,12.0,0.0,100,0.03,,,-99.99,,2013-02-11 19:32:00,
2013-02-11 14:42:00,33.0,33.0,29.59,WSW,246,12.0,0.0,100,0.03,,,-99.99,,2013-02-11 19:42:00,
2013-02-11 14:52:00,34.0,34.0,29.59,WSW,245,11.0,0.0,100,0.03,,,-99.99,,2013-02-11 19:52:00,
2013-02-11 15:02:00,34.0,34.0,29.60,West,262,15.0,0.0,100,0.03,,,-99.99,,2013-02-11 20:02:00,
2013-02-11 15:11:00,34.0,34.0,29.61,WSW,249,16.0,0.0,100,0.03,,,-99.99,,2013-02-11 20:11:00,
2013-02-11 15:22:00,34.0,34.0,29.61,WSW,249,16.0,0.0,100,0.03,,,-99.99,,2013-02-11 20:22:00,
2013-02-11 15:32:00,34.0,34.0,29.61,WSW,249,16.0,0.0,100,0.03,,,-99.99,,2013-02-11 20:32:00,
2013-02-11 15:42:00,34.0,34.0,29.63,West,260,14.0,0.0,100,0.03,,,-99.99,,2013-02-11 20:42:00,
2013-02-11 15:52:00,34.0,34.0,29.63,West,260,14.0,0.0,100,0.03,,,-99.99,,2013-02-11 20:52:00,
2013-02-11 16:02:00,34.0,34.0,29.63,West,260,14.0,0.0,100,0.03,,,-99.99,,2013-02-11 21:02:00,
2013-02-11 16:12:00,34.0,34.0,29.64,WSW,256,12.0,0.0,100,0.03,,,-99.99,,2013-02-11 21:12:00,
2013-02-11 16:22:00,34.0,34.0,29.64,WSW,256,12.0,0.0,100,0.03,,,-99.99,,2013-02-11 21:22:00,
2013-02-11 16:32:00,34.0,34.0,29.64,WSW,256,12.0,0.0,100,0.03,,,-99.99,,2013-02-11 21:32:00,
2013-02-11 16:42:00,34.0,34.0,29.64,WSW,256,12.0,0.0,100,0.03,,,-99.99,,2013-02-11 21:42:00,
2013-02-11 16:52:00,34.0,34.0,29.66,WSW,249,13.0,0.0,99,0.03,,,-99.99,,2013-02-11 21:52:00,
2013-02-11 17:02:00,34.0,34.0,29.67,SW,225,13.0,0.0,99,0.03,,,-99.99,,2013-02-11 22:02:00,
2013-02-11 17:11:00,34.0,34.0,29.69,West,259,10.0,0.0,100,0.03,,,-99.99,,2013-02-11 22:11:00,
2013-02-11 17:12:00,34.0,34.0,29.67,SW,225,13.0,0.0,99,0.03,,,-99.99,,2013-02-11 22:12:00,
2013-02-11 17:22:00,34.0,34.0,29.68,WSW,256,12.0,0.0,100,0.03,,,-99.99,,2013-02-11 22:22:00,
2013-02-11 17:32:00,34.0,34.0,29.69,West,259,10.0,0.0,100,0.03,,,-99.99,,2013-02-11 22:32:00,
2013-02-11 17:42:00,34.0,34.0,29.69,West,259,10.0,0.0,100,0.03,,,-99.99,,2013-02-11 22:42:00,
2013-02-11 17:52:00,34.0,34.0,29.69,West,259,10.0,0.0,100,0.03,,,-99.99,,2013-02-11 22:52:00,
2013-02-11 18:02:00,34.0,34.0,29.69,West,259,10.0,0.0,100,0.03,,,-99.99,,2013-02-11 23:02:00,
2013-02-11 18:32:00,33.0,33.0,29.72,SW,232,13.0,0.0,100,0.03,,,-99.99,,2013-02-11 23:32:00,
2013-02-11 18:42:00,33.0,33.0,29.72,SW,232,13.0,0.0,100,0.03,,,-99.99,,2013-02-11 23:42:00,
2013-02-11 18:52:00,33.0,33.0,29.73,WSW,249,10.0,0.0,100,0.03,,,-99.99,,2013-02-11 23:52:00,
2013-02-11 19:02:00,33.0,33.0,29.74,WSW,257,8.0,0.0,100,0.03,,,-99.99,,2013-02-12 00:02:00,
2013-02-11 19:12:00,33.0,33.0,29.74,WSW,257,8.0,0.0,100,0.03,,,-99.99,,2013-02-12 00:12:00,
2013-02-11 19:22:00,32.0,32.0,29.75,West,260,10.0,0.0,100,0.03,,,-99.99,,2013-02-12 00:22:00,
2013-02-11 19:32:00,32.0,32.0,29.76,West,264,8.0,0.0,100,0.03,,,-99.99,,2013-02-12 00:32:00,
2013-02-11 19:42:00,32.0,32.0,29.76,West,264,8.0,0.0,100,0.03,,,-99.99,,2013-02-12 00:42:00,
2013-02-11 19:52:00,32.0,32.0,29.77,WNW,285,8.0,0.0,100,0.03,,,-99.99,,2013-02-12 00:52:00,
2013-02-11 20:02:00,32.0,32.0,29.78,WNW,285,10.0,0.0,99,0.03,,,-99.99,,2013-02-12 01:02:00,
2013-02-11 20:12:00,32.0,32.0,29.78,WNW,285,10.0,0.0,99,0.03,,,-99.99,,2013-02-12 01:12:00,
2013-02-11 20:22:00,32.0,32.0,29.78,WSW,253,11.0,0.0,98,0.03,,,-99.99,,2013-02-12 01:22:00,
2013-02-11 20:32:00,32.0,32.0,29.79,WNW,290,12.0,0.0,98,0.03,,,-99.99,,2013-02-12 01:32:00,
2013-02-11 20:42:00,32.0,32.0,29.79,WNW,290,12.0,0.0,98,0.03,,,-99.99,,2013-02-12 01:42:00,
2013-02-11 20:52:00,32.0,31.0,29.80,West,278,11.0,0.0,97,0.03,,,-99.99,,2013-02-12 01:52:00,
2013-02-11 21:02:00,31.0,30.0,29.80,WNW,301,11.0,0.0,96,0.03,,,-99.99,,2013-02-12 02:02:00,
2013-02-11 21:12:00,31.0,30.0,29.80,WNW,301,11.0,0.0,96,0.03,,,-99.99,,2013-02-12 02:12:00,
2013-02-11 21:22:00,31.0,30.0,29.80,WNW,284,11.0,0.0,95,0.03,,,-99.99,,2013-02-12 02:22:00,
2013-02-11 21:32:00,31.0,30.0,29.80,WNW,284,11.0,0.0,95,0.03,,,-99.99,,2013-02-12 02:32:00,
2013-02-11 21:42:00,31.0,30.0,29.80,WNW,284,11.0,0.0,95,0.03,,,-99.99,,2013-02-12 02:42:00,
2013-02-11 21:52:00,31.0,29.0,29.83,West,276,13.0,0.0,94,0.03,,,-99.99,,2013-02-12 02:52:00,
2013-02-11 22:02:00,31.0,29.0,29.83,NW,308,14.0,0.0,93,0.03,,,-99.99,,2013-02-12 03:02:00,
2013-02-11 22:11:00,31.0,29.0,29.83,NW,308,14.0,0.0,93,0.03,,,-99.99,,2013-02-12 03:11:00,
2013-02-11 22:21:00,31.0,29.0,29.83,West,271,16.0,0.0,93,0.03,,,-99.99,,2013-02-12 03:21:00,
2013-02-11 22:32:00,30.0,28.0,29.83,West,273,12.0,0.0,94,0.03,,,-99.99,,2013-02-12 03:32:00,
2013-02-11 22:42:00,30.0,28.0,29.83,West,273,12.0,0.0,94,0.03,,,-99.99,,2013-02-12 03:42:00,
2013-02-11 22:51:00,30.0,28.0,29.83,West,273,12.0,0.0,94,0.03,,,-99.99,,2013-02-12 03:51:00,
2013-02-11 23:01:00,30.0,28.0,29.83,West,273,12.0,0.0,94,0.03,,,-99.99,,2013-02-12 04:01:00,
2013-02-11 23:11:00,30.0,28.0,29.83,West,273,12.0,0.0,94,0.03,,,-99.99,,2013-02-12 04:11:00,
2013-02-11 23:52:00,30.0,28.0,29.85,WNW,301,10.0,0.0,93,0.03,,,-99.99,,2013-02-12 04:52:00,